GW3650 Weather Reports


time (UTC)temp
F
wind
direction
speed
knots
gust
knots
rain 1hr
in
rain 24hr
in
rain mn
in
humidity
%
barometer
mb
20260506013038 54 0 8.7 15.6 0.00 0.00 0.00 87 1032.2
20260506010018 53 0 8.7 14.8 0.00 0.00 0.00 89 1032.1
20260506003038 52 0 5.2 12.2 0.00 0.00 0.00 90 1031.7
20260506000038 51 0 3.5 7.8 0.00 0.00 0.00 91 1031.2
20260505233018 50 0 1.7 7.8 0.00 0.00 0.00 91 1030.9
20260505230018 49 0 2.6 7.0 0.00 0.00 0.00 90 1030.6
20260505223018 49 0 3.5 7.8 0.00 0.00 0.00 89 1030.3
20260505220018 49 0 2.6 7.8 0.00 0.00 0.00 88 1030.1
20260505213018 50 0 3.5 8.7 0.00 0.00 0.00 87 1030.0
20260505210038 50 0 1.7 4.3 0.00 0.00 0.00 86 1030.0
20260505203017 51 0 1.7 5.2 0.00 0.00 0.00 85 1029.7
20260505200017 51 0 2.6 7.8 0.00 0.00 0.00 85 1029.5
20260505193018 51 0 2.6 7.8 0.00 0.00 0.00 86 1029.5
20260505190018 51 0 1.7 5.2 0.00 0.00 0.00 86 1029.2
20260505183017 50 0 1.7 5.2 0.00 0.00 0.00 85 1029.3
20260505180017 50 0 1.7 3.5 0.00 0.00 0.00 84 1029.3
20260505173017 51 0 1.7 5.2 0.00 0.00 0.00 83 1029.4
20260505170018 52 0 1.7 7.0 0.00 0.00 0.00 83 1029.1
20260505163017 51 0 1.7 7.8 0.00 0.00 0.00 83 1029.1
20260505153019 50 0 0.9 2.6 0.00 0.00 0.00 79 1029.1
20260505123017 53 0.0 0.0 0.00 0.00 0.00 75 1027.8
20260505120016 55 0.0 0.0 0.00 0.00 0.00 73 1027.5
20260505113017 56 0.0 0.0 0.00 0.00 0.00 71 1027.2
20260505100036 64 0.0 1.7 0.00 0.00 0.00 59 1027.0
20260505093038 68 158 0.9 4.3 0.00 0.00 0.00 52 1026.9
20260505090016 69 158 2.6 7.8 0.00 0.00 0.00 51 1026.8
20260505083016 70 158 3.5 8.7 0.00 0.00 0.00 51 1026.6
20260505080016 70 158 4.3 9.6 0.00 0.00 0.00 52 1026.6
20260505073017 70 158 2.6 7.8 0.00 0.00 0.00 51 1026.7
20260505070038 70 113 3.5 7.8 0.00 0.00 0.00 49 1026.6
20260505063017 70 113 3.5 8.7 0.00 0.00 0.00 52 1026.5
20260505060017 70 68 2.6 8.7 0.00 0.00 0.00 53 1026.5
20260505053017 70 293 1.7 7.0 0.00 0.00 0.00 54 1026.5
20260505040017 67 113 1.7 7.0 0.00 0.00 0.00 61 1028.1
20260505033019 67 90 2.6 6.1 0.00 0.00 0.00 62 1028.4
20260505030018 64 315 1.7 6.1 0.00 0.00 0.00 68 1028.5
20260505023017 61 270 1.7 5.2 0.00 0.00 0.00 76 1028.6
20260505020018 58 270 2.6 6.1 0.00 0.00 0.00 83 1028.9